Year,Month,Day,Hour,Minute,Value (Times are PST for temperature in C)
2016,11,23,10,59,8.20
2016,11,23,11,00,8.20
2016,11,23,11,01,8.20
2016,11,23,11,02,8.20
2016,11,23,11,03,8.10
2016,11,23,11,04,8.10
2016,11,23,11,05,8.10
2016,11,23,11,06,8.10
2016,11,23,11,07,8.10
2016,11,23,11,08,8.10
2016,11,23,11,09,8.10
2016,11,23,11,10,8.10
2016,11,23,11,11,8.10
2016,11,23,11,12,8.10
2016,11,23,11,13,8.10
2016,11,23,11,14,8.10
2016,11,23,11,15,8.10
2016,11,23,11,16,8.10
2016,11,23,11,17,8.10
2016,11,23,11,18,8.10
2016,11,23,11,19,8.10
2016,11,23,11,20,8.10
2016,11,23,11,21,8.10
2016,11,23,11,22,8.10
2016,11,23,11,23,8.10
2016,11,23,11,24,8.10
2016,11,23,11,25,8.10
2016,11,23,11,26,8.10
2016,11,23,11,27,8.10
2016,11,23,11,28,8.10
2016,11,23,11,29,8.10
2016,11,23,11,30,8.10
2016,11,23,11,31,8.10
2016,11,23,11,32,8.10
2016,11,23,11,33,8.10
2016,11,23,11,34,8.20
2016,11,23,11,35,8.20
2016,11,23,11,36,8.20
2016,11,23,11,37,8.20
2016,11,23,11,38,8.20
2016,11,23,11,39,8.20
2016,11,23,11,40,8.20
2016,11,23,11,41,8.20
2016,11,23,11,42,8.20
2016,11,23,11,43,8.20
2016,11,23,11,44,8.20
2016,11,23,11,45,8.20
2016,11,23,11,46,8.20
2016,11,23,11,47,8.20
2016,11,23,11,48,8.30
2016,11,23,11,49,8.30
2016,11,23,11,50,8.30
2016,11,23,11,51,8.30
2016,11,23,11,52,8.30
2016,11,23,11,53,8.30
2016,11,23,11,54,8.30
2016,11,23,11,55,8.30
2016,11,23,11,56,8.30
2016,11,23,11,57,8.30
2016,11,23,11,58,8.30
2016,11,23,11,59,8.30
2016,11,23,12,00,8.30
2016,11,23,12,01,8.30
2016,11,23,12,02,8.40
2016,11,23,12,03,8.40
2016,11,23,12,04,8.40
2016,11,23,12,05,8.40
2016,11,23,12,06,8.40
2016,11,23,12,07,8.50
2016,11,23,12,08,8.50
2016,11,23,12,09,8.50
2016,11,23,12,10,8.50
2016,11,23,12,11,8.60
2016,11,23,12,12,8.60
2016,11,23,12,13,8.60
2016,11,23,12,14,8.60
2016,11,23,12,15,8.70
2016,11,23,12,16,8.70
2016,11,23,12,17,8.70
2016,11,23,12,18,8.70
2016,11,23,12,19,8.80
2016,11,23,12,20,8.80
2016,11,23,12,21,8.80
2016,11,23,12,22,8.80
2016,11,23,12,23,8.90
2016,11,23,12,24,8.90
2016,11,23,12,25,8.90
2016,11,23,12,26,8.90
2016,11,23,12,27,8.90
2016,11,23,12,28,8.90
2016,11,23,12,29,8.90
2016,11,23,12,30,9.00
2016,11,23,12,31,9.00
2016,11,23,12,32,9.10
2016,11,23,12,33,9.10
2016,11,23,12,34,9.10
2016,11,23,12,35,9.10
2016,11,23,12,36,9.20
2016,11,23,12,37,9.20
2016,11,23,12,38,9.20
2016,11,23,12,39,9.20
2016,11,23,12,40,9.20
2016,11,23,12,41,9.20
2016,11,23,12,42,9.30
2016,11,23,12,43,9.30
2016,11,23,12,44,9.30
2016,11,23,12,45,9.30
2016,11,23,12,46,9.30
2016,11,23,12,47,9.30
2016,11,23,12,48,9.30
2016,11,23,12,49,9.30
2016,11,23,12,50,9.30
2016,11,23,12,51,9.30
2016,11,23,12,52,9.30
2016,11,23,12,53,9.30
2016,11,23,12,54,9.30
2016,11,23,12,55,9.30
2016,11,23,12,56,9.30
2016,11,23,12,57,9.30
2016,11,23,12,58,9.30
2016,11,23,12,59,9.30
2016,11,23,13,00,9.30
2016,11,23,13,01,9.30
2016,11,23,13,02,9.30
2016,11,23,13,03,9.40
2016,11,23,13,04,9.40
2016,11,23,13,05,9.40
2016,11,23,13,06,9.50
2016,11,23,13,07,9.50
2016,11,23,13,08,9.60
2016,11,23,13,09,9.60
2016,11,23,13,10,9.60
2016,11,23,13,11,9.60
2016,11,23,13,12,9.60
2016,11,23,13,13,9.70
2016,11,23,13,14,9.70
2016,11,23,13,15,9.60
2016,11,23,13,16,9.60
2016,11,23,13,17,9.60
2016,11,23,13,18,9.60
2016,11,23,13,19,9.60
2016,11,23,13,20,9.70
2016,11,23,13,21,9.70
2016,11,23,13,22,9.70
2016,11,23,13,23,9.70
2016,11,23,13,24,9.70
2016,11,23,13,25,9.70
2016,11,23,13,26,9.70
2016,11,23,13,27,9.60
2016,11,23,13,28,9.60
2016,11,23,13,29,9.60
2016,11,23,13,30,9.60
2016,11,23,13,31,9.60
2016,11,23,13,32,9.70
2016,11,23,13,33,9.70
2016,11,23,13,34,9.70
2016,11,23,13,35,9.80
2016,11,23,13,36,9.70
2016,11,23,13,37,9.70
2016,11,23,13,38,9.70
2016,11,23,13,39,9.70
2016,11,23,13,40,9.70
2016,11,23,13,41,9.60
2016,11,23,13,42,9.60
2016,11,23,13,43,9.60
2016,11,23,13,44,9.60
2016,11,23,13,45,9.60
2016,11,23,13,46,9.50
2016,11,23,13,47,9.50
2016,11,23,13,48,9.50
2016,11,23,13,49,9.50
2016,11,23,13,50,9.40
2016,11,23,13,51,9.40
2016,11,23,13,52,9.40
2016,11,23,13,53,9.30
2016,11,23,13,54,9.30
2016,11,23,13,55,9.30
2016,11,23,13,56,9.30
2016,11,23,13,57,9.30
2016,11,23,13,58,9.30
2016,11,23,13,59,9.20
2016,11,23,14,00,9.20
2016,11,23,14,01,9.20
2016,11,23,14,02,9.20
2016,11,23,14,03,9.20
2016,11,23,14,04,9.30
2016,11,23,14,05,9.30
2016,11,23,14,06,9.30
2016,11,23,14,07,9.40
2016,11,23,14,08,9.40
2016,11,23,14,09,9.40
2016,11,23,14,10,9.40
2016,11,23,14,11,9.40
2016,11,23,14,12,9.40
2016,11,23,14,13,9.40
2016,11,23,14,14,9.40
2016,11,23,14,15,9.40
2016,11,23,14,16,9.30
2016,11,23,14,17,9.30
2016,11,23,14,18,9.30
2016,11,23,14,19,9.20
2016,11,23,14,20,9.20
2016,11,23,14,21,9.30
2016,11,23,14,22,9.30
2016,11,23,14,23,9.20
2016,11,23,14,24,9.20
2016,11,23,14,25,9.20
2016,11,23,14,26,9.20
2016,11,23,14,27,9.30
2016,11,23,14,28,9.30
2016,11,23,14,29,9.30
2016,11,23,14,30,9.30
2016,11,23,14,31,9.30
2016,11,23,14,32,9.30
2016,11,23,14,33,9.20
2016,11,23,14,34,9.20
2016,11,23,14,35,9.20
2016,11,23,14,36,9.20
2016,11,23,14,37,9.20
2016,11,23,14,38,9.10
2016,11,23,14,39,9.10
2016,11,23,14,40,9.10
2016,11,23,14,41,9.10
2016,11,23,14,42,9.10
2016,11,23,14,43,9.00
2016,11,23,14,44,9.00
2016,11,23,14,45,9.00
2016,11,23,14,46,8.90
2016,11,23,14,47,8.90
2016,11,23,14,48,8.90
2016,11,23,14,49,8.90
2016,11,23,14,50,8.90
2016,11,23,14,51,8.90
2016,11,23,14,52,8.90
2016,11,23,14,53,8.90
2016,11,23,14,54,8.90
2016,11,23,14,55,8.90
2016,11,23,14,56,8.90
2016,11,23,14,57,8.90
2016,11,23,14,58,8.90
2016,11,23,14,59,8.90
2016,11,23,15,00,8.90
2016,11,23,15,01,8.90
2016,11,23,15,02,8.90
2016,11,23,15,03,8.90
2016,11,23,15,04,8.90
2016,11,23,15,05,8.90
2016,11,23,15,06,8.90
2016,11,23,15,07,8.90
2016,11,23,15,08,8.80
2016,11,23,15,09,8.80
2016,11,23,15,10,8.80
2016,11,23,15,11,8.80
2016,11,23,15,12,8.70
2016,11,23,15,13,8.70
2016,11,23,15,14,8.70
2016,11,23,15,15,8.70
2016,11,23,15,16,8.60
2016,11,23,15,17,8.60
2016,11,23,15,18,8.60
2016,11,23,15,19,8.60
2016,11,23,15,20,8.60
2016,11,23,15,21,8.60
2016,11,23,15,22,8.60
2016,11,23,15,23,8.60
2016,11,23,15,24,8.60
2016,11,23,15,25,8.60
2016,11,23,15,26,8.60
2016,11,23,15,27,8.60
2016,11,23,15,28,8.60
2016,11,23,15,29,8.60
2016,11,23,15,30,8.60
2016,11,23,15,31,8.60
2016,11,23,15,32,8.60
2016,11,23,15,33,8.60
2016,11,23,15,34,8.60
2016,11,23,15,35,8.60
2016,11,23,15,36,8.60
2016,11,23,15,37,8.60
2016,11,23,15,38,8.60
2016,11,23,15,39,8.60
2016,11,23,15,40,8.60
2016,11,23,15,41,8.60
2016,11,23,15,42,8.60
2016,11,23,15,43,8.60
2016,11,23,15,44,8.60
2016,11,23,15,45,8.60
2016,11,23,15,46,8.60
2016,11,23,15,47,8.60
2016,11,23,15,48,8.60
2016,11,23,15,49,8.60
2016,11,23,15,50,8.50
2016,11,23,15,51,8.50
2016,11,23,15,52,8.50
2016,11,23,15,53,8.50
2016,11,23,15,54,8.50
2016,11,23,15,55,8.60
2016,11,23,15,56,8.60
2016,11,23,15,57,8.50
2016,11,23,15,58,8.50
2016,11,23,15,59,8.50
2016,11,23,16,00,8.50
2016,11,23,16,01,8.50
2016,11,23,16,02,8.50
2016,11,23,16,03,8.50
2016,11,23,16,04,8.50
2016,11,23,16,05,8.50
2016,11,23,16,06,8.50
2016,11,23,16,07,8.50
2016,11,23,16,08,8.50
2016,11,23,16,09,8.40
2016,11,23,16,10,8.40
2016,11,23,16,11,8.40
2016,11,23,16,12,8.40
2016,11,23,16,13,8.40
2016,11,23,16,14,8.40
2016,11,23,16,15,8.40
2016,11,23,16,16,8.40
2016,11,23,16,17,8.40
2016,11,23,16,18,8.40
2016,11,23,16,19,8.30
2016,11,23,16,20,8.30
2016,11,23,16,21,8.30
2016,11,23,16,22,8.30
2016,11,23,16,23,8.30
2016,11,23,16,24,8.30
2016,11,23,16,25,8.30
2016,11,23,16,26,8.30
2016,11,23,16,27,8.30
2016,11,23,16,28,8.30
2016,11,23,16,29,8.30
2016,11,23,16,30,8.30
2016,11,23,16,31,8.30
2016,11,23,16,32,8.30
2016,11,23,16,33,8.30
2016,11,23,16,34,8.30
2016,11,23,16,35,8.30
2016,11,23,16,36,8.30
2016,11,23,16,37,8.30
2016,11,23,16,38,8.30
2016,11,23,16,39,8.30
2016,11,23,16,40,8.30
2016,11,23,16,41,8.30
2016,11,23,16,42,8.30
2016,11,23,16,43,8.30
2016,11,23,16,44,8.30
2016,11,23,16,45,8.30
2016,11,23,16,46,8.30
2016,11,23,16,47,8.30
2016,11,23,16,48,8.30
2016,11,23,16,49,8.30
2016,11,23,16,50,8.30
2016,11,23,16,51,8.30
2016,11,23,16,52,8.30
2016,11,23,16,53,8.30
2016,11,23,16,54,8.30
2016,11,23,16,55,8.30
2016,11,23,16,56,8.30
2016,11,23,16,57,8.30
2016,11,23,16,58,8.30
2016,11,23,16,59,8.30
2016,11,23,17,00,8.30
2016,11,23,17,01,8.30
2016,11,23,17,02,8.30
2016,11,23,17,03,8.30
2016,11,23,17,04,8.30
2016,11,23,17,05,8.30
2016,11,23,17,06,8.30
2016,11,23,17,07,8.30
2016,11,23,17,08,8.30
2016,11,23,17,09,8.30
2016,11,23,17,10,8.30
2016,11,23,17,11,8.30
2016,11,23,17,12,8.30
2016,11,23,17,13,8.30
2016,11,23,17,14,8.30
2016,11,23,17,15,8.30
2016,11,23,17,16,8.30
2016,11,23,17,17,8.30
2016,11,23,17,18,8.30
2016,11,23,17,19,8.20
2016,11,23,17,20,8.20
2016,11,23,17,21,8.20
2016,11,23,17,22,8.20
2016,11,23,17,23,8.20
2016,11,23,17,24,8.20
2016,11,23,17,25,8.20
2016,11,23,17,26,8.20
2016,11,23,17,27,8.20
2016,11,23,17,28,8.20
2016,11,23,17,29,8.20
2016,11,23,17,30,8.20
2016,11,23,17,31,8.20
2016,11,23,17,32,8.20
2016,11,23,17,33,8.20
2016,11,23,17,34,8.20
2016,11,23,17,35,8.20
2016,11,23,17,36,8.20
2016,11,23,17,37,8.20
2016,11,23,17,38,8.20
2016,11,23,17,39,8.10
2016,11,23,17,40,8.10
2016,11,23,17,41,8.10
2016,11,23,17,42,8.10
2016,11,23,17,43,8.10
2016,11,23,17,44,8.10
2016,11,23,17,45,8.10
2016,11,23,17,46,8.10
2016,11,23,17,47,8.10
2016,11,23,17,48,8.10
2016,11,23,17,49,8.10
2016,11,23,17,50,8.10
2016,11,23,17,51,8.10
2016,11,23,17,52,8.10
2016,11,23,17,53,8.10
2016,11,23,17,54,8.10
2016,11,23,17,55,8.10
2016,11,23,17,56,8.10
2016,11,23,17,57,8.10
2016,11,23,17,58,8.10
2016,11,23,17,59,8.00
2016,11,23,18,00,8.00
2016,11,23,18,01,8.00
2016,11,23,18,02,8.00
2016,11,23,18,03,8.00
2016,11,23,18,04,8.00
2016,11,23,18,05,7.90
2016,11,23,18,06,7.90
2016,11,23,18,07,7.90
2016,11,23,18,08,7.90
2016,11,23,18,09,7.80
2016,11,23,18,10,7.80
2016,11,23,18,11,7.80
2016,11,23,18,12,7.80
2016,11,23,18,13,7.80
2016,11,23,18,14,7.80
2016,11,23,18,15,7.80
2016,11,23,18,16,7.80
2016,11,23,18,17,7.80
2016,11,23,18,18,7.80
2016,11,23,18,19,7.80
2016,11,23,18,20,7.80
2016,11,23,18,21,7.90
2016,11,23,18,22,7.90
2016,11,23,18,23,7.80
2016,11,23,18,24,7.80
2016,11,23,18,25,7.80
2016,11,23,18,26,7.80
2016,11,23,18,27,7.80
2016,11,23,18,28,7.80
2016,11,23,18,29,7.80
2016,11,23,18,30,7.80
2016,11,23,18,31,7.80
2016,11,23,18,32,7.80
2016,11,23,18,33,7.80
2016,11,23,18,34,7.80
2016,11,23,18,35,7.80
2016,11,23,18,36,7.80
2016,11,23,18,37,7.80
2016,11,23,18,38,7.80
2016,11,23,18,39,7.80
2016,11,23,18,40,7.80
2016,11,23,18,41,7.80
2016,11,23,18,42,7.80
2016,11,23,18,43,7.80
2016,11,23,18,44,7.70
2016,11,23,18,45,7.70
2016,11,23,18,46,7.70
2016,11,23,18,47,7.70
2016,11,23,18,48,7.70
2016,11,23,18,49,7.70
2016,11,23,18,50,7.70
2016,11,23,18,51,7.70
2016,11,23,18,52,7.80
2016,11,23,18,53,7.80
2016,11,23,18,54,7.80
2016,11,23,18,55,7.80
2016,11,23,18,56,7.80
2016,11,23,18,57,7.80
2016,11,23,18,58,7.80
2016,11,23,18,59,7.80
2016,11,23,19,00,7.80
2016,11,23,19,01,7.80
2016,11,23,19,02,7.80
2016,11,23,19,03,7.80
2016,11,23,19,04,7.80
2016,11,23,19,05,7.90
2016,11,23,19,06,7.90
2016,11,23,19,07,7.90
2016,11,23,19,08,7.90
2016,11,23,19,09,7.90
2016,11,23,19,10,7.90
2016,11,23,19,11,7.90
2016,11,23,19,12,7.90
2016,11,23,19,13,8.00
2016,11,23,19,14,8.00
2016,11,23,19,15,8.00
2016,11,23,19,16,8.00
2016,11,23,19,17,8.10
2016,11,23,19,18,8.10
2016,11,23,19,19,8.10
2016,11,23,19,20,8.10
2016,11,23,19,21,8.10
2016,11,23,19,22,8.10
2016,11,23,19,23,8.10
2016,11,23,19,24,8.10
2016,11,23,19,25,8.10
2016,11,23,19,26,8.10
2016,11,23,19,27,8.10
2016,11,23,19,28,8.10
2016,11,23,19,29,8.10
2016,11,23,19,30,8.10
2016,11,23,19,31,8.10
2016,11,23,19,32,8.10
2016,11,23,19,33,8.10
2016,11,23,19,34,8.10
2016,11,23,19,35,8.10
2016,11,23,19,36,8.10
2016,11,23,19,37,8.10
2016,11,23,19,38,8.10
2016,11,23,19,39,8.10
2016,11,23,19,40,8.10
2016,11,23,19,41,8.00
2016,11,23,19,42,8.00
2016,11,23,19,43,8.00
2016,11,23,19,44,8.00
2016,11,23,19,45,8.00
2016,11,23,19,46,8.00
2016,11,23,19,47,8.00
2016,11,23,19,48,8.00
2016,11,23,19,49,8.00
2016,11,23,19,50,8.00
2016,11,23,19,51,8.00
2016,11,23,19,52,7.90
2016,11,23,19,53,8.00
2016,11,23,19,54,7.90
2016,11,23,19,55,7.90
2016,11,23,19,56,7.90
2016,11,23,19,57,7.90
2016,11,23,19,58,7.90
2016,11,23,19,59,7.90
2016,11,23,20,00,7.90
2016,11,23,20,01,7.90
2016,11,23,20,02,7.90
2016,11,23,20,03,7.90
2016,11,23,20,04,7.90
2016,11,23,20,05,7.90
2016,11,23,20,06,7.90
2016,11,23,20,07,7.90
2016,11,23,20,08,7.90
2016,11,23,20,09,7.90
2016,11,23,20,10,7.90
2016,11,23,20,11,7.90
2016,11,23,20,12,7.90
2016,11,23,20,13,7.90
2016,11,23,20,14,7.90
2016,11,23,20,15,7.90
2016,11,23,20,16,7.90
2016,11,23,20,17,7.90
2016,11,23,20,18,7.90
2016,11,23,20,19,7.90
2016,11,23,20,20,7.90
2016,11,23,20,21,7.80
2016,11,23,20,22,7.80
2016,11,23,20,23,7.80
2016,11,23,20,24,7.80
2016,11,23,20,25,7.80
2016,11,23,20,26,7.80
2016,11,23,20,27,7.80
2016,11,23,20,28,7.80
2016,11,23,20,29,7.80
2016,11,23,20,30,7.80
2016,11,23,20,31,7.80
2016,11,23,20,32,7.80
2016,11,23,20,33,7.80
2016,11,23,20,34,7.80
2016,11,23,20,35,7.80
2016,11,23,20,36,7.80
2016,11,23,20,37,7.80
2016,11,23,20,38,7.80
2016,11,23,20,39,7.80
2016,11,23,20,40,7.80
2016,11,23,20,41,7.80
2016,11,23,20,42,7.80
2016,11,23,20,43,7.80
2016,11,23,20,44,7.80
2016,11,23,20,45,7.80
2016,11,23,20,46,7.80
2016,11,23,20,47,7.80
2016,11,23,20,48,7.80
2016,11,23,20,49,7.80
2016,11,23,20,50,7.80
2016,11,23,20,51,7.80
2016,11,23,20,52,7.80
2016,11,23,20,53,7.80
2016,11,23,20,54,7.80
2016,11,23,20,55,7.80
2016,11,23,20,56,7.80
2016,11,23,20,57,7.80
2016,11,23,20,58,7.80
2016,11,23,20,59,7.80
2016,11,23,21,00,7.80
2016,11,23,21,01,7.80
2016,11,23,21,02,7.80
2016,11,23,21,03,7.80
2016,11,23,21,04,7.80
2016,11,23,21,05,7.80
2016,11,23,21,06,7.80
2016,11,23,21,07,7.80
2016,11,23,21,08,7.80
2016,11,23,21,09,7.80
2016,11,23,21,10,7.80
2016,11,23,21,11,7.80
2016,11,23,21,12,7.80
2016,11,23,21,13,7.80
2016,11,23,21,14,7.80
2016,11,23,21,15,7.80
2016,11,23,21,16,7.80
2016,11,23,21,17,7.90
2016,11,23,21,18,7.90
2016,11,23,21,19,7.90
2016,11,23,21,20,7.90
2016,11,23,21,21,7.90
2016,11,23,21,22,7.90
2016,11,23,21,23,7.90
2016,11,23,21,24,7.90
2016,11,23,21,25,7.90
2016,11,23,21,26,7.90
2016,11,23,21,27,7.90
2016,11,23,21,28,8.00
2016,11,23,21,29,8.00
2016,11,23,21,30,8.00
2016,11,23,21,31,8.00
2016,11,23,21,32,8.00
2016,11,23,21,33,8.00
2016,11,23,21,34,8.00
2016,11,23,21,35,8.00
2016,11,23,21,36,8.00
2016,11,23,21,37,8.00
2016,11,23,21,38,8.00
2016,11,23,21,39,8.00
2016,11,23,21,40,8.00
2016,11,23,21,41,8.00
2016,11,23,21,42,8.00
2016,11,23,21,43,8.00
2016,11,23,21,44,8.00
2016,11,23,21,45,8.00
2016,11,23,21,46,8.00
2016,11,23,21,47,8.00
2016,11,23,21,48,8.00
2016,11,23,21,49,8.00
2016,11,23,21,50,8.00
2016,11,23,21,51,8.00
2016,11,23,21,52,8.00
2016,11,23,21,53,8.00
2016,11,23,21,54,8.00
2016,11,23,21,55,8.00
2016,11,23,21,56,8.00
2016,11,23,21,57,8.10
2016,11,23,21,58,8.10
2016,11,23,21,59,8.10
2016,11,23,22,00,8.10
2016,11,23,22,01,8.10
2016,11,23,22,02,8.10
2016,11,23,22,03,8.10
2016,11,23,22,04,8.10
2016,11,23,22,05,8.10
2016,11,23,22,06,8.10
2016,11,23,22,07,8.10
2016,11,23,22,08,8.10
2016,11,23,22,09,8.10
2016,11,23,22,10,8.10
2016,11,23,22,11,8.10
2016,11,23,22,12,8.10
2016,11,23,22,13,8.10
2016,11,23,22,14,8.10
2016,11,23,22,15,8.10
2016,11,23,22,16,8.10
2016,11,23,22,17,8.10
2016,11,23,22,18,8.10
2016,11,23,22,19,8.10
2016,11,23,22,20,8.10
2016,11,23,22,21,8.10
2016,11,23,22,22,8.10
2016,11,23,22,23,8.10
2016,11,23,22,24,8.10
2016,11,23,22,25,8.10
2016,11,23,22,26,8.10
2016,11,23,22,27,8.10
2016,11,23,22,28,8.10
2016,11,23,22,29,8.10
2016,11,23,22,30,8.10
2016,11,23,22,31,8.10
2016,11,23,22,32,8.10
2016,11,23,22,33,8.10
2016,11,23,22,34,8.10
2016,11,23,22,35,8.10
2016,11,23,22,36,8.10
2016,11,23,22,37,8.10
2016,11,23,22,38,8.10
2016,11,23,22,39,8.10
2016,11,23,22,40,8.10
2016,11,23,22,41,8.10
2016,11,23,22,42,8.20
2016,11,23,22,43,8.20
2016,11,23,22,44,8.20
2016,11,23,22,45,8.20
2016,11,23,22,46,8.20
2016,11,23,22,47,8.20
2016,11,23,22,48,8.20
2016,11,23,22,49,8.20
2016,11,23,22,50,8.20
2016,11,23,22,51,8.20
2016,11,23,22,52,8.20
2016,11,23,22,53,8.20
2016,11,23,22,54,8.20
2016,11,23,22,55,8.20
2016,11,23,22,56,8.20
2016,11,23,22,57,8.20
2016,11,23,22,58,8.20
2016,11,23,22,59,8.20
2016,11,23,23,00,8.20
2016,11,23,23,01,8.20
2016,11,23,23,02,8.20
2016,11,23,23,03,8.10
2016,11,23,23,04,8.10
2016,11,23,23,05,8.10
2016,11,23,23,06,8.10
2016,11,23,23,07,8.10
2016,11,23,23,08,8.10
2016,11,23,23,09,8.10
2016,11,23,23,10,8.10
2016,11,23,23,11,8.10
2016,11,23,23,12,8.10
2016,11,23,23,13,8.00
2016,11,23,23,14,8.10
2016,11,23,23,15,8.10
2016,11,23,23,16,8.10
2016,11,23,23,17,8.10
2016,11,23,23,18,8.10
2016,11,23,23,19,8.10
2016,11,23,23,20,8.10
2016,11,23,23,21,8.10
2016,11,23,23,22,8.10
2016,11,23,23,23,8.10
2016,11,23,23,24,8.10
2016,11,23,23,25,8.10
2016,11,23,23,26,8.10
2016,11,23,23,27,8.10
2016,11,23,23,28,8.10
2016,11,23,23,29,8.10
2016,11,23,23,30,8.10
2016,11,23,23,31,8.10
2016,11,23,23,32,8.10
2016,11,23,23,33,8.10
2016,11,23,23,34,8.10
2016,11,23,23,35,8.10
2016,11,23,23,36,8.10
2016,11,23,23,37,8.10
2016,11,23,23,38,8.10
2016,11,23,23,39,8.10
2016,11,23,23,40,8.10
2016,11,23,23,41,8.10
2016,11,23,23,42,8.10
2016,11,23,23,43,8.10
2016,11,23,23,44,8.10
2016,11,23,23,45,8.10
2016,11,23,23,46,8.20
2016,11,23,23,47,8.20
2016,11,23,23,48,8.20
2016,11,23,23,49,8.20
2016,11,23,23,50,8.30
2016,11,23,23,51,8.30
2016,11,23,23,52,8.30
2016,11,23,23,53,8.30
2016,11,23,23,54,8.30
2016,11,23,23,55,8.30
2016,11,23,23,56,8.30
2016,11,23,23,57,8.30
2016,11,23,23,58,8.40
2016,11,23,23,59,8.40
